This demonstration page uses our WeatherBlox Daily Observations layout. Learn more.

Left ArrowRight Arrow

39.08367, -84.50855

Hourly Observations for June 16, 2015

Temp ( °F °C ) Dew Point ( °F °C ) Humidity (%) Winds ( mph kmh ) Pressure ( in mb ) Visibility ( mi km ) Precip ( " mm )
12:53 am 00:53 Clear 77 25 68 20 74 74 SSW 8 13 29.99 1016 10 16.0934 N/A
1:53 am 01:53 Clear 77 25 68 20 74 74 SSW 7 11 29.99 1016 10 16.0934 N/A
2:53 am 02:53 Clear 78 25.6 68 20 71 71 SSW 8 13 29.98 1015 10 16.0934 N/A
3:53 am 03:53 Mostly Cloudy with Thunderstorms 76 24.4 70 21.1 82 82 SW 16 26 29.99 1016 6 9.65604 0.02 0.508
4:12 am 04:12 Cloudy with Light Rain 75 24 70 21 83 83 NW 15 24 30 1016 6 9.65604 N/A
4:20 am 04:20 Cloudy with Heavy Thunderstorms 75 24 72 22 89 89 VRB 7 11 30 1016 2 3.21868 N/A
4:27 am 04:27 Cloudy with Light Thunderstorms 74 23.3 71 21.7 91 91 W 9 15 30 1016 1.75 2.816345 0.18 4.572
4:30 am 04:30 Cloudy with Light Thunderstorms 73 23 72 22 94 94 WSW 8 13 30 1016 3 4.82802 N/A
4:37 am 04:37 Cloudy with Light Rain 73 22.8 71 21.7 94 94 SW 7 11 30 1016 10 16.0934 0.18 4.572
4:53 am 04:53 Cloudy with Light Rain 73 22.8 71 21.7 94 94 W 7 11 30.01 1016 9 14.48406 0.19 4.826
5:06 am 05:06 Cloudy with Light Rain 73 23 72 22 94 94 N N/A 30 1016 7 11.26538 N/A
5:32 am 05:32 Cloudy with Light Rain 73 23 72 22 94 94 N N/A 30 1016 10 16.0934 N/A
5:53 am 05:53 Partly Cloudy 73 22.8 71 21.7 94 94 N N/A 30.02 1017 10 16.0934 0.02 0.508
6:53 am 06:53 Mostly Cloudy 72 22.2 71 21.7 97 97 N N/A 30.04 1017 10 16.0934 N/A
7:53 am 07:53 Mostly Cloudy 74 23.3 72 22.2 94 94 SW 3 6 30.04 1017 10 16.0934 N/A
8:53 am 08:53 Mostly Cloudy 77 25 73 22.8 88 88 SW 3 6 30.05 1018 10 16.0934 N/A
9:53 am 09:53 Cloudy 78 25.6 72 22.2 82 82 W 14 22 30.06 1018 10 16.0934 N/A
10:07 am 10:07 Partly Cloudy 79 26.1 72 22.2 79 79 W 14 22 30.03 1017 10 16.0934 N/A
10:46 am 10:46 Cloudy 80 26.7 72 22.2 76 76 VRB 7 11 30.03 1017 10 16.0934 N/A
10:53 am 10:53 Mostly Cloudy 81 27.2 73 22.8 77 77 WNW 9 15 30.06 1018 10 16.0934 N/A
11:53 am 11:53 Partly Cloudy 83 28.3 72 22.2 70 70 W 9 15 30.06 1018 10 16.0934 N/A
12:53 pm 12:53 Mostly Cloudy 82 27.8 71 21.7 69 69 W 9 15 30.07 1018 10 16.0934 N/A
1:53 pm 13:53 Mostly Cloudy 84 28.9 70 21.1 63 63 W 10 17 30.05 1018 10 16.0934 N/A
2:44 pm 14:44 Mostly Cloudy with Heavy Rain 79 26 73 23 84 84 N 7 11 30.03 1017 2 3.21868 N/A
2:53 pm 14:53 Partly Cloudy 81 27.2 74 23.3 79 79 N 6 9 30.04 1017 10 16.0934 0.08 2.032
3:53 pm 15:53 Partly Cloudy 85 29.4 71 21.7 63 63 NNW 9 15 30.03 1017 10 16.0934 N/A
4:53 pm 16:53 Partly Cloudy 82 27.8 69 20.6 65 65 WNW 9 15 30.03 1017 10 16.0934 N/A
5:53 pm 17:53 Partly Cloudy 82 27.8 71 21.7 69 69 WNW 6 9 30.04 1017 10 16.0934 N/A
6:53 pm 18:53 Mostly Sunny 82 27.8 70 21.1 67 67 WNW 6 9 30.04 1017 10 16.0934 N/A
7:53 pm 19:53 Cloudy with Light Rain 79 26.1 71 21.7 77 77 N 3 6 30.05 1018 6 9.65604 0.03 0.762
8:39 pm 20:39 Mostly Cloudy with Thunderstorms 74 23.3 72 22.2 94 94 SW 3 6 30.03 1017 10 16.0934 0.05 1.27
8:53 pm 20:53 Mostly Sunny 74 23.3 71 21.7 91 91 S 3 6 30.06 1018 10 16.0934 0.05 1.27
9:53 pm 21:53 Mostly Cloudy 72 22.2 72 22.2 100 100 N N/A 30.07 1018 8 12.87472 N/A
10:53 pm 22:53 Cloudy 72 22.2 71 21.7 97 97 N N/A 30.09 1019 10 16.0934 N/A
11:53 pm 23:53 Mostly Cloudy 72 22.2 72 22.2 100 100 N N/A 30.08 1019 10 16.0934 N/A

Powered by AerisWeather